EW7099 Weather Reports


Display with metric or nautical units.
time (UTC)temp
F
wind
direction
speed
MPH
gust
MPH
rain 1hr
in
rain 24hr
in
rain mn
in
humidity
%
barometer
mb
20260504023042 83 144 0.0 0.0 0.00 0.00 0.00 81 1010.7
20260504021541 83 144 0.0 0.0 0.00 0.00 0.00 81 1010.5
20260504020040 83 144 0.0 5.0 0.00 0.00 0.00 80 1010.5
20260504014536 84 143 1.0 5.0 0.00 0.00 0.00 79 1010.4
20260504013002 84 147 0.0 0.0 0.00 0.00 0.00 77 1010.1
20260504011559 85 147 0.0 5.0 0.00 0.00 0.00 74 1009.9
20260504010058 86 148 3.0 5.0 0.00 0.00 0.00 70 1009.7
20260504004550 86 173 4.0 7.0 0.00 0.00 0.00 67 1009.3
20260504003051 87 166 2.0 11.0 0.00 0.00 0.00 63 1009.0
20260504001606 88 238 4.0 8.0 0.00 0.00 0.00 58 1008.7
20260504000045 89 188 6.0 10.0 0.00 0.00 0.00 57 1008.5
20260503234543 89 213 6.0 11.0 0.00 0.00 0.00 52 1008.1
20260503233041 90 165 6.0 13.0 0.00 0.00 0.00 53 1008.0
20260503231541 90 279 4.0 13.0 0.00 0.00 0.00 53 1007.8
20260503230037 89 155 6.0 13.0 0.00 0.00 0.00 54 1007.7
20260503224538 89 178 8.0 14.0 0.00 0.00 0.00 50 1007.7
20260503223040 90 168 6.0 16.0 0.00 0.00 0.00 55 1007.7
20260503221541 90 182 6.0 13.0 0.00 0.00 0.00 54 1007.6
20260503220040 91 360 9.0 14.0 0.00 0.00 0.00 54 1007.6
20260503214530 91 171 8.0 16.0 0.00 0.00 0.00 54 1007.9
20260503213032 92 150 9.0 20.0 0.00 0.00 0.00 53 1008.0
20260503211529 92 190 10.0 19.0 0.00 0.00 0.00 51 1008.1
20260503210025 93 182 10.0 18.0 0.00 0.00 0.00 56 1008.3
20260503204526 93 175 8.0 16.0 0.00 0.00 0.00 58 1008.3
20260503203024 93 157 9.0 20.0 0.00 0.00 0.00 58 1008.6
20260503201529 93 192 7.0 15.0 0.00 0.00 0.00 56 1008.7
20260503200029 93 188 12.0 19.0 0.00 0.00 0.00 57 1009.0
20260503194527 93 161 10.0 16.0 0.00 0.00 0.00 57 1009.1
20260503193019 93 360 6.0 15.0 0.00 0.00 0.00 57 1009.2
20260503191521 93 177 10.0 18.0 0.00 0.00 0.00 55 1009.3
20260503190021 94 182 12.0 21.0 0.00 0.00 0.00 54 1009.6
20260503184522 94 144 8.0 16.0 0.00 0.00 0.00 51 1009.8
20260503183023 94 229 9.0 14.0 0.00 0.00 0.00 53 1010.1
20260503181525 94 128 7.0 14.0 0.00 0.00 0.00 53 1010.2
20260503180009 93 150 8.0 14.0 0.00 0.00 0.00 52 1010.4
20260503174508 93 360 8.0 15.0 0.00 0.00 0.00 52 1010.6
20260503173031 93 150 7.0 15.0 0.00 0.00 0.00 51 1010.8
20260503171509 94 186 8.0 15.0 0.00 0.00 0.00 52 1011.0
20260503081522 79 288 0.0 0.0 0.00 0.00 0.00 85 1009.2
20260503071556 79 91 0.0 0.0 0.00 0.00 0.00 85 1010.2
20260503054535 82 318 0.0 0.0 0.00 0.00 0.00 81 1010.7
20260503053040 82 318 0.0 0.0 0.00 0.00 0.00 81 1010.6
20260503051534 82 306 0.0 0.0 0.00 0.00 0.00 82 1010.8
20260503050035 82 305 0.0 0.0 0.00 0.00 0.00 82 1010.8
20260503044604 82 305 0.0 0.0 0.00 0.00 0.00 83 1010.9
20260503043030 82 188 0.0 0.0 0.00 0.00 0.00 83 1010.7
20260503041530 82 188 0.0 0.0 0.00 0.00 0.00 83 1010.8
20260503040030 82 188 0.0 0.0 0.00 0.00 0.00 83 1010.8
20260503034529 82 188 0.0 0.0 0.00 0.00 0.00 83 1010.8
20260503033022 82 190 0.0 0.0 0.00 0.00 0.00 83 1010.3
20260503031521 82 190 0.0 0.0 0.00 0.00 0.00 83 1010.0
20260503030018 82 169 0.0 4.0 0.00 0.00 0.00 83 1009.8
20260503024513 82 157 3.0 5.0 0.00 0.00 0.00 82 1009.4